星链-5192 (STARLINK-5192 )

导读 | 星芒AI

STARLINK-5192 是 SpaceX Starlink 项目中的一颗低轨通信卫星,旨在为全球提供高速互联网服务。该卫星属于 Starlink 群体部署计划的一部分,通常由猎鹰9号火箭发射入轨。它运行在约 550 公里的近地轨道上,配备先进通信设备,支持宽带数据传输。Starlink 系统致力于提升偏远地区的网络接入能力,并减少全球数字鸿沟。

基本信息
目录编号:
54074
目录名称:
STARLINK-5192
国际标识:
2022-136Z
轨道中心:
EARTH
卫星名称:
星链-5192
卫星全名:
星链-5192 (STARLINK-5192 )
卫星状态:
在轨 (已飞行1111 天)
发射日期:
2022-10-20 UTC
国别 :
美国 (US)
星等 :
--
轨道信息
数据来源 国际轨道数据
星历时间: 2025-11-04T06:16:17+0800
23小时前
查看轨道信息
半长轴: 6917.882km
偏心率: 0.0001061
轨道倾角: 53.217°
近地点辐角 84.890°
升交点赤经 188.304°
平近点角 275.221°
近地点: 539.013km
远地点: 540.481km
周期: 95.438分钟
每日圈数: 15.088397
详细信息
固有亮度:
5
最大亮度:
2.5
卫星平台:
Starlink v1.5
覆盖范围:
全球
运营商:
太空探索技术公司
运营商所在国:
美国
制造商(研发单位):
太空探索技术公司
制造商所在国:
美国
使用方式:
暂无
卫星简介
星链(Starlink)计划是由太空探索技术公司(SpaceX)提出的一个巨型低轨卫星互联网星座项目,计划在2019年至2024年间在太空搭建由约1.2万颗卫星组成的“星链”网络,其中1584颗将部署在地球上空550千米处的近地轨道,并从2020年开始工作。该卫星仍在工作。
2D轨道图
3D轨道图
轨道高度分析图
轨道倾角分析图
轨道综合分析图
查看轨道综合分析图